FW8197 Weather Reports


Display with metric or nautical units.
time (UTC)temp
F
wind
direction
speed
MPH
gust
MPH
rain 1hr
in
rain 24hr
in
rain mn
in
humidity
%
barometer
mb
20260508011556 48 0 0.0 2.0 0.00 0.00 0.00 87 1014.5
20260508010057 49 0 0.0 1.0 0.00 0.00 0.00 89 1014.5
20260508004601 49 0 0.0 3.0 0.00 0.00 0.00 89 1014.6
20260508003107 49 0 0.0 0.0 0.00 0.00 0.00 89 1014.6
20260508001600 49 0 0.0 0.0 0.00 0.00 0.00 89 1014.7
20260508000100 49 0 0.0 0.0 0.00 0.00 0.00 88 1014.7
20260507234601 49 0 0.0 1.0 0.00 0.00 0.00 88 1014.6
20260507233100 49 0 0.0 2.0 0.00 0.00 0.00 88 1014.6
20260507231603 49 240 0.0 2.0 0.00 0.00 0.00 87 1014.5
20260507230102 49 266 1.0 2.0 0.00 0.00 0.00 87 1014.6
20260507224620 49 256 0.0 3.0 0.00 0.00 0.00 87 1014.4
20260507223101 50 158 0.0 3.0 0.00 0.00 0.00 86 1014.3
20260507221558 50 243 0.0 2.0 0.00 0.00 0.00 85 1014.3
20260507220058 50 196 0.0 3.0 0.00 0.00 0.00 84 1014.3
20260507214604 50 181 0.0 2.0 0.00 0.00 0.00 84 1014.3
20260507213101 51 0 0.0 2.0 0.00 0.00 0.00 83 1014.2
20260507211626 51 283 0.0 2.0 0.00 0.00 0.00 83 1014.1
20260507204605 51 257 1.0 3.0 0.00 0.00 0.00 82 1013.9
20260507203101 51 248 1.0 4.0 0.00 0.00 0.00 82 1013.6
20260507201612 51 233 2.0 6.0 0.00 0.00 0.00 81 1013.5
20260507200104 51 257 2.0 6.0 0.00 0.00 0.00 79 1013.3
20260507194604 52 257 4.0 10.0 0.00 0.00 0.00 78 1013.1
20260507193057 53 205 2.0 6.0 0.00 0.00 0.00 79 1012.9
20260507191600 53 148 1.0 6.0 0.00 0.00 0.00 78 1012.8
20260507190057 53 151 1.0 5.0 0.00 0.00 0.00 77 1012.8
20260507184558 53 239 1.0 5.0 0.00 0.00 0.00 76 1012.9
20260507183059 54 255 2.0 6.0 0.00 0.00 0.00 76 1012.7
20260507181559 54 151 3.0 9.0 0.00 0.00 0.00 75 1012.5
20260507180059 54 195 3.0 6.0 0.00 0.00 0.00 75 1012.5
20260507174557 54 224 3.0 8.0 0.00 0.00 0.00 75 1012.4
20260507173101 54 145 2.0 4.0 0.00 0.00 0.00 75 1012.2
20260507171602 55 245 2.0 6.0 0.00 0.00 0.00 73 1012.4
20260507170058 55 226 3.0 9.0 0.00 0.00 0.00 71 1012.3
20260507164559 55 278 3.0 7.0 0.00 0.00 0.00 69 1012.3
20260507163057 56 263 2.0 4.0 0.00 0.00 0.00 69 1012.3
20260507161600 56 260 2.0 4.0 0.00 0.00 0.00 68 1012.2
20260507160108 56 177 1.0 4.0 0.00 0.00 0.00 69 1012.2
20260507154559 56 285 1.0 6.0 0.00 0.00 0.00 68 1012.5
20260507153100 56 254 3.0 4.0 0.00 0.00 0.00 66 1012.4
20260507151558 56 222 3.0 6.0 0.00 0.00 0.00 66 1012.4
20260507150057 57 247 4.0 9.0 0.00 0.00 0.00 64 1012.4
20260507144556 57 262 3.0 8.0 0.00 0.00 0.00 58 1012.4
20260507143105 58 270 3.0 5.0 0.00 0.00 0.00 64 1012.4
20260507141559 57 243 3.0 8.0 0.00 0.00 0.00 64 1012.5
20260507140111 58 200 3.0 9.0 0.00 0.00 0.00 61 1012.6
20260507134556 58 229 3.0 7.0 0.00 0.00 0.00 59 1012.4
20260507133058 58 236 3.0 6.0 0.00 0.00 0.00 59 1012.7
20260507131600 57 283 3.0 10.0 0.00 0.00 0.00 60 1012.7
20260507130058 57 276 4.0 10.0 0.00 0.00 0.00 58 1012.8
20260507124559 57 153 4.0 11.0 0.00 0.00 0.00 62 1012.8
20260507123059 57 122 3.0 8.0 0.00 0.00 0.00 62 1012.9
20260507121559 57 239 3.0 11.0 0.00 0.00 0.00 63 1012.9
20260507120058 56 340 5.0 10.0 0.00 0.00 0.00 65 1012.8
20260507114558 55 175 3.0 8.0 0.00 0.00 0.00 69 1013.0
20260507113058 56 128 3.0 12.0 0.00 0.00 0.00 71 1013.1
20260507111556 57 207 3.0 8.0 0.00 0.00 0.00 72 1013.1
20260507110059 55 113 5.0 9.0 0.00 0.00 0.00 76 1013.0
20260507104558 53 177 3.0 9.0 0.00 0.00 0.00 78 1013.1
20260507103055 54 141 3.0 9.0 0.00 0.00 0.00 77 1013.3
20260507101606 55 201 5.0 10.0 0.00 0.00 0.00 77 1013.2
20260507094603 52 188 5.0 11.0 0.00 0.00 0.00 82 1013.4
20260507093100 52 231 4.0 8.0 0.00 0.00 0.00 82 1013.4
20260507091605 51 151 0.0 3.0 0.00 0.00 0.00 84 1013.4
20260507090112 51 179 1.0 4.0 0.00 0.00 0.00 84 1013.3
20260507084559 51 257 0.0 4.0 0.00 0.00 0.00 83 1013.4
20260507083102 51 194 0.0 3.0 0.00 0.00 0.00 85 1013.5
20260507081601 50 172 1.0 3.0 0.00 0.00 0.00 86 1013.6
20260507080057 49 155 0.0 2.0 0.00 0.00 0.00 87 1013.6
20260507074600 49 257 0.0 2.0 0.00 0.00 0.00 87 1013.6
20260507073110 48 0 0.0 2.0 0.00 0.00 0.00 88 1013.6
20260507071600 48 0 0.0 0.0 0.00 0.00 0.00 89 1013.5
20260507070137 48 0 0.0 1.0 0.00 0.00 0.00 88 1013.5
20260507064557 48 150 0.0 2.0 0.00 0.00 0.00 88 1013.5
20260507063100 47 209 1.0 2.0 0.00 0.00 0.00 90 1013.5
20260507061557 46 0 0.0 0.0 0.00 0.00 0.00 93 1013.4
20260507060057 45 0 0.0 0.0 0.00 0.00 0.00 92 1013.4
20260507054604 45 0 0.0 0.0 0.00 0.00 0.00 92 1013.4
20260507053057 45 0 0.0 0.0 0.00 0.00 0.00 91 1013.3
20260507051559 46 0 0.0 0.0 0.00 0.00 0.00 91 1013.3
20260507050104 46 0 0.0 0.0 0.00 0.00 0.00 91 1013.4
20260507044603 46 0 0.0 0.0 0.00 0.00 0.00 91 1013.4
20260507043056 46 0 0.0 0.0 0.00 0.00 0.00 91 1013.4
20260507041600 46 187 0.0 1.0 0.00 0.00 0.00 90 1013.3
20260507040100 46 0 0.0 2.0 0.00 0.00 0.00 90 1013.3
20260507034603 47 171 0.0 2.0 0.00 0.00 0.00 90 1013.3
20260507033059 46 0 0.0 3.0 0.00 0.00 0.00 90 1013.4
20260507031558 46 167 0.0 2.0 0.00 0.00 0.00 90 1013.4
20260507030108 47 0 0.0 0.0 0.00 0.00 0.00 90 1013.4
20260507024613 47 0 0.0 0.0 0.00 0.00 0.00 89 1013.5
20260507023058 47 0 0.0 1.0 0.00 0.00 0.00 89 1013.6
20260507021615 47 0 0.0 0.0 0.00 0.00 0.00 89 1013.5
20260507020106 47 0 0.0 0.0 0.00 0.00 0.00 90 1013.6
20260507014615 47 0 0.0 0.0 0.00 0.00 0.00 89 1013.7
20260507013057 47 0 0.0 0.0 0.00 0.00 0.00 89 1013.6